Regional Weather Roundup
Issued by NWS

Home | Current Version | Previous Version | Text Only | Print | Product List | Glossary On
Versions: 1 2 3 4 5 6 7 8 9 10 11 12 13 14 15 16 17 18 19 20 21 22 23 24 25 26 27 28 29 30 31 32 33 34 35 36 37 38 39 40 41 42 43 44 45 46 47 48 49 50
000
ASUS43 KTOP 260008
RWRKS

WEATHER ROUNDUP FOR KANSAS
NATIONAL WEATHER SERVICE GOODLAND KS
600 PM CST THU DEC 25 2014

NOTE:  "FAIR" INDICATES FEW OR NO CLOUDS BELOW 12,000 FEET WITH NO
SIGNIFICANT WEATHER AND/OR OBSTRUCTIONS TO VISIBILITY.

KSZ001>006-013>018-027>032-041>047-260100-
NORTHWEST KANSAS

CITY           SKY/WX    TMP DP  RH WIND       PRES   REMARKS
GOODLAND       CLEAR     33  28  81 N12       29.59R WCI  24
6HR MIN TEMP:  33; 6HR MAX TEMP:  46;

HAYS           MOCLDY    50  25  37 SE5       29.54R
HILL CITY      PTCLDY    39  25  57 NW12      29.57R WCI  32
6HR MIN TEMP:  39; 6HR MAX TEMP:  56;

RUSSELL        MOCLDY    48  28  46 S5        29.53R
6HR MIN TEMP:  47; 6HR MAX TEMP:  57;

$$

KSZ061>065-074>080-084>089-260100-
SOUTHWEST KANSAS

CITY           SKY/WX    TMP DP  RH WIND       PRES   REMARKS
DODGE CITY     CLOUDY    49  22  34 S8        29.55R
6HR MIN TEMP:  49; 6HR MAX TEMP:  56;

ELKHART          N/A     53  18  25 SW10        N/A
GARDEN CITY    MOCLDY    47  23  38 S10       29.51R
6HR MIN TEMP:  47; 6HR MAX TEMP:  55;

GREAT BEND     CLOUDY    46  27  46 S18       29.57R
LIBERAL        CLOUDY    48  18  29 S12       29.59R
PRATT          CLOUDY    48  25  40 S21       29.60R
$$

KSZ066>073-081>083-090>101-260100-
SOUTHEAST KANSAS

CITY           SKY/WX    TMP DP  RH WIND       PRES   REMARKS
CHANUTE        CLOUDY    51  31  46 S16       29.75R
6HR MIN TEMP:  49; 6HR MAX TEMP:  56;

COFFEYVILLE    CLOUDY    53  29  39 S23G31    29.78R
6HR MIN TEMP:  50; 6HR MAX TEMP:  57;

HUTCHINSON     CLOUDY    52  27  38 S20       29.62R
6HR MIN TEMP:  50; 6HR MAX TEMP:  55;

MEDICINE LODGE   N/A     50  27  40 S10G22    29.63R
NEWTON         CLOUDY    50  27  40 S32G41    29.64S
PARSONS        CLOUDY    53  30  41 S14G25    29.77R
6HR MIN TEMP:  50; 6HR MAX TEMP:  57;

WICHITA INTL   CLOUDY    52  28  39 S25G32    29.67R
6HR MIN TEMP:  50; 6HR MAX TEMP:  57;

WICHITA JABRA  CLOUDY    52  27  38 S26G38    29.66R
6HR MIN TEMP:  50; 6HR MAX TEMP:  56;

WICHITA MCCONL CLOUDY    52  28  39 S23G35    29.68R
WINFIELD       CLOUDY    53  28  38 S17G28    29.72R
6HR MIN TEMP:  52; 6HR MAX TEMP:  58;

$$

KSZ007>012-019>026-033>040-048>060-102>105-260100-
NORTHEAST KANSAS

CITY           SKY/WX    TMP DP  RH WIND       PRES   REMARKS
CONCORDIA      MOCLDY    44  30  57 SE6       29.58R
6HR MIN TEMP:  44; 6HR MAX TEMP:  51;

EMPORIA        CLOUDY    51  28  41 S20       29.67R
6HR MIN TEMP:  48; 6HR MAX TEMP:  54;

LAWRENCE       CLOUDY    50  30  46 S13       29.71R
6HR MIN TEMP:  49; 6HR MAX TEMP:  54;

MANHATTAN      MOCLDY    51  29  42 S12       29.63R
6HR MIN TEMP:  51; 6HR MAX TEMP:  55;

MARYSVILLE     MOCLDY    46  32  57 S8        29.62R
OLATHE IND     CLOUDY    49  30  48 S21G29    29.72R
6HR MIN TEMP:  48; 6HR MAX TEMP:  53;

OLATHE EXE     CLOUDY    50  29  44 S17G26    29.72R
6HR MIN TEMP:  48; 6HR MAX TEMP:  53;

SALINA         MOCLDY    49  30  48 S12       29.59R
6HR MIN TEMP:  48; 6HR MAX TEMP:  55;

TOPEKA BILLARD MOCLDY    51  31  46 SE8       29.69R
6HR MIN TEMP:  51; 6HR MAX TEMP:  56;

TOPEKA FORBES  MOCLDY    50  31  48 S12       29.67R
6HR MIN TEMP:  50; 6HR MAX TEMP:  55;

$$



USA.gov is the U.S. government's official web portal to all federal, state and local government web resources and services.